This is the latest recevied weather packets stored in our database for station/object G4KVI. If no packets are shown the sender has not sent any weather packets the latest 10 day(s).
| Time | Temp. | Humidity | Pressure | Rain* | Wind** | Luminosity | Snow |
|---|---|---|---|---|---|---|---|
| 1787764804 | 24.44° C | 52% | 1012.4 hPa | 0 mm | - | 73 W/m² | - |
| 1787764504 | 24.44° C | 52% | 1012.1 hPa | 0 mm | - | 79 W/m² | - |
| 1787764204 | 25° C | 51% | 1012.3 hPa | 0 mm | - | 79 W/m² | - |
| 1787763904 | 25° C | 50% | 1012.2 hPa | 0 mm | - | 80 W/m² | - |
| 1787763604 | 25° C | 49% | 1012.2 hPa | 0 mm | - | 85 W/m² | - |
| 1787763304 | 25° C | 50% | 1012.3 hPa | 0 mm | - | 93 W/m² | - |
| 1787763004 | 25° C | 49% | 1012.1 hPa | 0 mm | - | 104 W/m² | - |
| 1787762704 | 25.56° C | 49% | 1012.3 hPa | 0 mm | - | 118 W/m² | - |
| 1787762404 | 25.56° C | 49% | 1012 hPa | 0 mm | - | 131 W/m² | - |
| 1787762104 | 25.56° C | 49% | 1012.1 hPa | 0 mm | - | 148 W/m² | - |
| 1787761804 | 25.56° C | 49% | 1012.3 hPa | 0 mm | - | 167 W/m² | - |
| 1787761504 | 25.56° C | 49% | 1012.3 hPa | 0 mm | - | 200 W/m² | - |
| 1787761204 | 26.11° C | 47% | 1012.1 hPa | 0 mm | - | 228 W/m² | - |
| 1787760904 | 26.11° C | 48% | 1012.2 hPa | 0 mm | - | 259 W/m² | - |
| 1787760604 | 26.11° C | 47% | 1012.2 hPa | 0 mm | - | 257 W/m² | - |
| 1787760304 | 26.11° C | 47% | 1012.4 hPa | 0 mm | - | 256 W/m² | - |
| 1787760004 | 26.67° C | 47% | 1012.3 hPa | 0 mm | - | 265 W/m² | - |
| 1787759704 | 26.67° C | 46% | 1012.1 hPa | 0 mm | - | 351 W/m² | - |
| 1787759404 | 26.67° C | 46% | 1012.4 hPa | 0 mm | - | 363 W/m² | - |
| 1787759104 | 26.67° C | 46% | 1012.2 hPa | 0 mm | - | 387 W/m² | - |
| 1787758804 | 26.11° C | 48% | 1012.4 hPa | 0 mm | - | 385 W/m² | - |
| 1787758504 | 26.11° C | 48% | 1012.1 hPa | 0 mm | - | 289 W/m² | - |
| 1787758204 | 26.11° C | 47% | 1012.5 hPa | 0 mm | - | 196 W/m² | - |
| 1787757904 | 26.11° C | 48% | 1012.6 hPa | 0 mm | - | 347 W/m² | - |
| 1787757604 | 26.11° C | 47% | 1012.5 hPa | 0 mm | - | 303 W/m² | - |
* Rain latest hour (hover to see other rain measurements)
** Current wind speed in m/s (hover to see current wind gust speed)